Erzurum, Turkey

12:17 AM +03 on October 19, 2017 (GMT +0300)
Erzurum

Weather History for LTCE - October, 2013

Change the Weather History Date:

Saturday, October 5, 2013

  Actual Average Record
Temperature  
Mean Temperature 38 °F -  
Max Temperature 45 °F 56 °F 77 °F (2001)
Min Temperature 30 °F 34 °F 21 °F (2011)
Degree Days  
Heating Degree Days 28    
Moisture  
Dew Point 29 °F    
Average Humidity 70    
Maximum Humidity 93    
Minimum Humidity 35    
Precipitation  
Precipitation 0.00 in 0.06 in - ()
Sea Level Pressure  
Sea Level Pressure 30.02 in    
Wind  
Wind Speed 7 mph ()    
Max Wind Speed 16 mph    
Max Gust Speed -    
Visibility 6.6 miles    
Events      
Averages and records for this station are not official NWS values.
T = Trace of Precipitation, MM = Missing Value Source: Averaged Metar Reports

Daily Weather History Graph

Daily Weather History Graph

Search for Another Location

Airport or City:

Trip Planner

Search our weather history database for the weather conditions in past years. The results will help you decide how hot, cold, wet, or windy it might be!

Date:

Astronomy

Oct. 05, 2013 Rise Set
Actual Time 6:15 AM EEST 5:51 PM EEST
Civil Twilight 5:48 AM EEST 6:18 PM EEST
Nautical Twilight 5:17 AM EEST 6:49 PM EEST
Astronomical Twilight 4:45 AM EEST 7:21 PM EEST
Moon 6:31 AM EEST (10/5) 5:56 PM EEST (10/5)
Length of Visible Light 12h 29m
Length of Day
11h 35m
New Moon, 0% of the Moon is Illuminated
Oct 5
New Moon
Oct 12
First Quarter
Oct 19
Full
Oct 27
Last Quarter
Nov 3
New

Hourly Weather History & Observations

Time (EEST) Temp. Windchill Dew Point Humidity Pressure Visibility Wind Dir Wind Speed Gust Speed Precip Events Conditions
12:20 AM 33.8 °F 23.5 °F 30.2 °F 87% 30.01 in 6.2 mi WSW 16.1 mph - N/A   Scattered Clouds
12:50 AM 33.8 °F 25.3 °F 30.2 °F 87% 30.04 in 6.2 mi WSW 11.5 mph - N/A   Scattered Clouds
1:20 AM 33.8 °F 25.8 °F 30.2 °F 87% 30.04 in 6.2 mi West 10.4 mph - N/A   Scattered Clouds
1:50 AM 33.8 °F 27.7 °F 30.2 °F 87% 30.04 in 6.2 mi WSW 6.9 mph - N/A   Scattered Clouds
2:20 AM 33.8 °F 30.8 °F 30.2 °F 87% 30.04 in 6.2 mi WSW 3.5 mph - N/A   Scattered Clouds
2:50 AM 33.8 °F 30.8 °F 30.2 °F 87% 30.01 in 6.2 mi WNW 3.5 mph - N/A   Scattered Clouds
3:00 AM 34 °F - 30 °F 80%  in 12 mi WNW 3.5 mph - -   Partly Cloudy
3:20 AM 33.8 °F 28.6 °F 32.0 °F 93% 30.01 in 6.2 mi North 5.8 mph - N/A   Scattered Clouds
3:50 AM 33.8 °F 28.6 °F 30.2 °F 87% 30.01 in 6.2 mi West 5.8 mph - N/A   Scattered Clouds
4:20 AM 33.8 °F - 30.2 °F 87% 30.01 in 6.2 mi Variable 1.2 mph - N/A   Scattered Clouds
4:50 AM 32.0 °F 27.5 °F 28.4 °F 87% 30.01 in 6.2 mi WNW 4.6 mph - N/A   Scattered Clouds
5:20 AM 32.0 °F 28.7 °F 28.4 °F 87% 30.01 in 6.2 mi North 3.5 mph - N/A   Scattered Clouds
5:50 AM 32.0 °F 27.5 °F 30.2 °F 93% 30.04 in 6.2 mi NNW 4.6 mph - N/A   Scattered Clouds
6:20 AM 32.0 °F 27.5 °F 28.4 °F 87% 30.04 in 6.2 mi East 4.6 mph - N/A   Mostly Cloudy
6:50 AM 32.0 °F - 28.4 °F 87% 30.04 in 6.2 mi WSW 2.3 mph - N/A   Mostly Cloudy
7:20 AM 32.0 °F - 30.2 °F 93% 30.04 in 6.2 mi Variable 1.2 mph - N/A   Mostly Cloudy
7:50 AM 33.8 °F - 30.2 °F 87% 30.04 in 6.2 mi Variable 2.3 mph - N/A   Mostly Cloudy
8:20 AM 33.8 °F 30.8 °F 32.0 °F 93% 30.04 in 6.2 mi NW 3.5 mph - N/A   Mostly Cloudy
8:50 AM 35.6 °F - 30.2 °F 81% 30.04 in 6.2 mi Variable 2.3 mph - N/A   Mostly Cloudy
9:00 AM 36 °F - 29 °F 68%  in 12 mi WNW 2.3 mph - -   Partly Cloudy
9:20 AM 37.4 °F 32.8 °F 28.4 °F 70% 30.04 in 6.2 mi NE 5.8 mph - N/A   Mostly Cloudy
9:50 AM 39.2 °F 33.6 °F 28.4 °F 65% 30.04 in 6.2 mi NNE 8.1 mph - N/A   Mostly Cloudy
10:20 AM 41.0 °F 39.0 °F 28.4 °F 61% 30.04 in 6.2 mi Variable 3.5 mph - N/A   Mostly Cloudy
10:50 AM 41.0 °F 37.1 °F 24.8 °F 53% 30.04 in 6.2 mi NNE 5.8 mph - N/A   Mostly Cloudy
11:20 AM 41.0 °F 38.0 °F 28.4 °F 61% 30.04 in 6.2 mi Variable 4.6 mph - N/A   Mostly Cloudy
11:50 AM 42.8 °F 40.1 °F 26.6 °F 53% 30.04 in 6.2 mi Variable 4.6 mph - N/A   Mostly Cloudy
12:20 PM 42.8 °F 41.1 °F 26.6 °F 53% 30.04 in 6.2 mi Variable 3.5 mph - N/A   Mostly Cloudy
12:50 PM 42.8 °F 40.1 °F 24.8 °F 49% 30.01 in 6.2 mi East 4.6 mph - N/A   Mostly Cloudy
1:20 PM 42.8 °F - 24.8 °F 49% 30.01 in 6.2 mi Variable 2.3 mph - N/A   Mostly Cloudy
1:50 PM 44.6 °F - 24.8 °F 46% 30.01 in 6.2 mi Variable 2.3 mph - N/A   Mostly Cloudy
2:20 PM 44.6 °F 43.1 °F 24.8 °F 46% 30.01 in 6.2 mi Variable 3.5 mph - N/A   Mostly Cloudy
2:50 PM 42.8 °F - 24.8 °F 49% 30.01 in 6.2 mi Variable 2.3 mph - N/A   Mostly Cloudy
3:00 PM 43 °F - 25 °F 35%  in 12 mi WNW 3.5 mph - -   Partly Cloudy
3:20 PM 42.8 °F 40.1 °F 26.6 °F 53% 30.01 in 6.2 mi West 4.6 mph - N/A   Mostly Cloudy
3:50 PM 42.8 °F 40.1 °F 24.8 °F 49% 30.01 in 6.2 mi WSW 4.6 mph - N/A   Mostly Cloudy
4:20 PM 42.8 °F 38.0 °F 28.4 °F 57% 30.01 in 6.2 mi West 8.1 mph - N/A   Mostly Cloudy
4:50 PM 42.8 °F 38.6 °F 28.4 °F 57% 30.01 in 6.2 mi West 6.9 mph - N/A   Mostly Cloudy
5:20 PM 42.8 °F 38.6 °F 28.4 °F 57% 30.01 in 6.2 mi West 6.9 mph - N/A   Mostly Cloudy
5:50 PM 42.8 °F 39.3 °F 30.2 °F 61% 30.01 in 6.2 mi WNW 5.8 mph - N/A   Mostly Cloudy
6:20 PM 39.2 °F 32.0 °F 30.2 °F 70% 30.01 in 6.2 mi NE 11.5 mph - N/A   Mostly Cloudy
6:50 PM 39.2 °F 31.6 °F 30.2 °F 70% 30.01 in 6.2 mi NE 12.7 mph - N/A   Mostly Cloudy
7:20 PM 39.2 °F 32.0 °F 28.4 °F 65% 30.01 in 6.2 mi NE 11.5 mph - N/A   Mostly Cloudy
7:50 PM 39.2 °F 31.6 °F 28.4 °F 65% 30.01 in 6.2 mi NE 12.7 mph - N/A   Mostly Cloudy
8:20 PM 39.2 °F 30.8 °F 28.4 °F 65% 30.01 in 6.2 mi ENE 15.0 mph - N/A   Mostly Cloudy
8:50 PM 39.2 °F 31.2 °F 30.2 °F 70% 30.01 in 6.2 mi NE 13.8 mph - N/A   Mostly Cloudy
9:00 PM 39 °F - 30 °F 59%  in 12 mi NE 13.8 mph - -   Partly Cloudy
9:20 PM 39.2 °F 31.2 °F 30.2 °F 70% 30.01 in 6.2 mi NE 13.8 mph - N/A   Mostly Cloudy
9:50 PM 39.2 °F 30.8 °F 28.4 °F 65% 30.01 in 6.2 mi ENE 15.0 mph - N/A   Mostly Cloudy
10:20 PM 39.2 °F 30.5 °F 30.2 °F 70% 30.01 in 6.2 mi ENE 16.1 mph - N/A   Mostly Cloudy
10:50 PM 37.4 °F 28.9 °F 30.2 °F 75% 30.01 in 6.2 mi ENE 13.8 mph - N/A   Mostly Cloudy
11:20 PM 37.4 °F 28.9 °F 30.2 °F 75% 30.01 in 6.2 mi ENE 13.8 mph - N/A   Mostly Cloudy
11:50 PM 37.4 °F 29.8 °F 30.2 °F 75% 30.01 in 6.2 mi ENE 11.5 mph - N/A   Mostly Cloudy